www.pogodaiklimat.ru

Архив погоды в Симферополе (Крым, Россия)

Время
(UTC), дата
21 23.06
00 24.06
03 24.06
06 24.06
09 24.06
12 24.06
15 24.06
18 24.06
21 24.06
00 25.06
03 25.06
06 25.06
09 25.06
12 25.06
15 25.06
18 25.06
21 25.06
00 26.06
03 26.06
06 26.06
09 26.06
12 26.06
15 26.06
18 26.06
21 26.06
00 27.06
03 27.06
06 27.06
09 27.06
12 27.06
15 27.06
18 27.06
21 27.06
00 28.06
03 28.06
06 28.06
09 28.06
12 28.06
15 28.06
18 28.06
21 28.06
00 29.06
03 29.06
06 29.06
09 29.06
12 29.06
15 29.06
18 29.06
21 29.06
00 30.06
03 30.06
06 30.06
09 30.06
12 30.06
15 30.06
18 30.06
Ветер
(напр.,м/с)
Видим. Явления Облачность Т
(С)
Тd
(С)
f
(%)
Тe
(С)
Тes
(С)
Комфортность P
(гПа)
Po
(гПа)
Тmin
(С)
Tmax
(С)
R
(мм)
R24
(мм)
S
(см)
З 2 10 км 1/1 300 м
[St]
+14.4 +13.9 97 +14 +14 прохладно 1008.1 986.8
Ю 2 10 км 10/0
[Ac trans Ci fib]
+13.1 +12.7 97 +12 +12 прохладно 1008.1 986.7
Ю 2 10 км 4/4 1500 м
[Sc]
+13.6 +13.2 97 +13 +13 холодно 1007.8 986.4 +12.3 2
З 3 10 км 8/4 630 м
[Cb calv Ac lent]
+18.2 +15.6 85 +19 +21 по сезону 1007.7 986.7 +12.3
СЗ 4 10 км 9/6 1000 м
[Cb calv Ci]
+20.6 +13.6 64 +23 +27 комфорт 1007.5 986.7
З 5 10 км гроза без осадков {ливн. дождь} 10/6 1300 м
[Cb calv Ci sp]
+21.1 +14.7 67 +24 +26 комфорт 1006.6 985.8
штиль 0
{11}
10 км гроза без осадков {ливн. дождь} [макс. диам. градин 8 мм] 10/5 750 м
[Cb cap Ac lent]
+16.4 +14.2 87 +16 +17 холодно 1007.9 986.8 22
Ю 3 10 км {гроза, ливн. дождь} 10/3 900 м
[Sc Ac und]
+15.4 +13.8 90 +15 +15 холодно 1008.3 987.1 +23.2 22
Ю 3 10 км 10/0
[Ac und]
+15.4 +14.4 94 +15 +15 прохладно 1008.1 986.9
В 3 10 км 5/3 570 м
[Sc Ac trans]
+13.8 +13.6 99 +13 +13 прохладно 1007.7 986.4
В 3 10 км 10/3 600 м
[Sc Ac trans Ci fib]
+14.0 +13.6 97 +13 +13 холодно 1007.7 986.4 +13.3 0.4
СВ 6 10 км 10/0
[Ac cast Ci fib]
+17.9 +14.8 82 +17 +19 прохладно 1008.1 987.1 +13.3
СВ 9-12
{12}
10 км в посл. час ливневой дождь 9/5 800 м
[Cb calv Ac trans]
+20.1 +14.5 70 +22 +22 комфорт 1009.2 988.3
СВ 8-12
{12}
10 км {ливн. дождь} 10/4 1300 м
[Cb calv Ac und]
+20.6 +13.8 65 +23 +23 комфорт 1010.0 989.1
В 6
{12}
10 км {ливн. дождь} 10/1 1000 м
[Cb calv Ac und]
+20.0 +12.0 60 +21 +22 комфорт 1010.5 989.5 0.3
СВ 3 10 км {ливн. дождь} 10/1 1000 м
[Cb calv Ac cast Ci fib]
+17.5 +14.6 83 +18 +18 по сезону 1010.7 989.6 +21.3 0.3
СВ 2 10 км зарница 10/6 1500 м
[Cb calv Ac lent]
+17.5 +16.7 95 +18 +18 по сезону 1011.1 990.0
С 2 10 км зарница 10/6 1230 м
[Cb calv Ac lent]
+17.5 +16.8 96 +18 +18 тепло 1011.2 990.1
С 2 10 км 10/8 960 м
[Cb calv Ci fib]
+16.1 +15.8 98 +16 +16 по сезону 1011.8 990.6 +15.1
СВ 3 10 км гроза без осадков 10/8 1500 м
[Cb cap Ci ing]
+19.3 +17.8 91 +22 +23 комфорт 1012.2 991.2 +15.1
СВ 5
{10}
10 км гроза без осадков {ливн. дождь} 10/3 600 м
[Cb cap Ac und]
+22.4 +18.8 80 +28 +30 душно 1012.5 991.7
В 3 10 км {гроза, ливн. дождь} 10/3 600 м
[Cb calv Ac trans Ci sp]
+22.9 +16.9 69 +28 +32 душно 1012.5 991.7
СВ 5-12
{16}
1900 м гроза, ливневой дождь 8/8 660 м
[Cb cap]
+17.3 +17.1 99 +17 +17 прохладно 1013.5 992.3 12
В 2
{12}
10 км {гроза, ливн. дождь} 10/3 1000 м
[Cb calv Ac und]
+19.0 +17.7 92 +21 +21 комфорт 1013.6 992.6 +24.5 13
СВ 3 10 км слаб. ливневой дождь 10/10 1500 м
[Cb calv]
+18.2 +17.9 98 +19 +19 тепло 1014.0 992.9
С 4 10 км в посл. час ливневой дождь 10/10 1300 м
[Cb calv]
+17.6 +17.3 98 +17 +17 тепло 1012.9 991.8
С 7
{11}
10 км слаб. ливневой дождь 10/10 1020 м
[Cb calv]
+17.8 +17.5 98 +17 +17 тепло 1011.3 990.2 +17.2 4
СВ 8-12
{13}
10 км слаб. ливневой дождь 10/10 570 м
[Cb calv]
+18.9 +18.6 98 +20 +20 тепло 1010.8 989.8 +17.2 7
СВ 7-12
{15}
10 км в посл. час ливневой дождь 10/10 960 м
[Cb calv]
+19.0 +18.5 97 +20 +20 тепло 1011.4 990.4
СВ 7-10
{12}
10 км в посл. час ливневой дождь 10/10 960 м
[Cb calv]
+20.0 +19.2 95 +23 +23 комфорт 1011.1 990.2
СВ 7
{10}
10 км {ливн. дождь} 8/5 1170 м
[Cb calv Ac trans]
+22.3 +20.4 89 +29 +29 очень
душно
1011.4 990.7 7
СВ 7 10 км {ливн. дождь} 1/1 300 м
[St]
+19.0 +17.7 92 +20 +20 тепло 1012.7 991.7 +22.4 4
СВ 3 10 км 5/5 570 м
[Sc]
+18.1 +16.9 93 +18 +18 тепло 1013.4 992.3
СВ 4 6000 м дымка 10/10 600 м
[Sc]
+17.7 +17.4 98 +17 +17 тепло 1012.6 991.5
В 3 10 км слаб. дождь {туман} 10/0
[As op]
+17.9 +17.7 99 +18 +18 тепло 1011.7 990.6 +16.9 0.1
СВ 7
{10}
10 км в посл. час дождь {туман} 9/3 1140 м
[Sc Ac As]
+20.6 +18.0 85 +24 +25 комфорт 1011.7 990.8 +16.9 0.5
В 10-13
{13}
10 км 10/4 1380 м
[Cb calv Ci fib]
+24.1 +16.4 62 +28 +28 душно 1011.6 990.9
В 10-14
{15}
10 км 10/1 600 м
[Cb calv Ac trans Ci fib]
+24.6 +16.6 61 +28 +28 душно 1011.8 991.2
В 8-12
{16}
10 км 10/3 1000 м
[Cb calv Ac und]
+22.0 +16.7 72 +26 +26 душно 1013.1 992.3 0.4
СВ 3
{12}
10 км 10/0
[Ac und]
+20.0 +16.1 78 +23 +23 комфорт 1013.0 992.0 +25.5
В 3 10 км 10/0
[Ac und]
+18.2 +17.9 98 +19 +19 тепло 1014.0 992.9
СВ 4 10 км 4/0
[Ac trans]
+16.8 +16.3 97 +16 +16 тепло 1014.0 992.8
СВ 4 10 км 3/0
[Ci fib]
+17.4 +16.8 96 +17 +17 тепло 1013.6 992.4 +16.1
В 7 10 км 4/0
[Ci]
+23.7 +15.5 60 +27 +29 жарко 1013.5 992.8 +16.1
В 8-12
{12}
10 км 3/0
[Ac lent]
+27.7 +13.6 42 +30 +32 жарко 1013.1 992.6
В 7-10
{12}
10 км 4/1 1000 м
[Cb calv Ci fib]
+29.6 +12.5 35 +31 +34 жарко 1012.8 992.5
СВ 5
{10}
10 км 5/0
[Ci fib]
+28.8 +12.3 36 +30 +32 жарко 1012.7 992.3
З 2 10 км 3/0
[Ci fib]
+19.2 +17.3 89 +22 +22 комфорт 1013.8 992.8 +30.0
Ю 4 10 км ясно +18.3 +16.8 91 +19 +19 тепло 1014.8 993.7
ЮВ 3 10 км ясно +18.0 +16.0 88 +18 +18 тепло 1014.0 992.9
В 5 10 км ясно +18.0 +14.3 79 +18 +18 по сезону 1013.5 992.4 +16.6
СВ 4 10 км ясно +26.5 +19.1 64 +32 +38 очень
душно
1013.2 992.7 +16.6
СВ 6 10 км 3/3 1000 м
[Cu med, cong]
+29.7 +17.2 47 +34 +39 очень
душно
1012.8 992.5
СВ 4 10 км 4/4 1500 м
[Cb calv]
+30.9 +16.1 41 +34 +40 душно 1011.7 991.5
С 5
{13}
10 км {гроза} 8/3 1000 м
[Cb calv Ac trans]
+22.5 +18.1 76 +28 +29 душно 1013.0 992.2
В 5 10 км {гроза} 6/0
[Ac trans Ci fib]
+21.8 +18.4 81 +27 +27 душно 1012.9 992.1 +31.2
Местоположение метеостанции Симферополь (Крым, Россия): широта 45.03 долгота 33.97 высота над уровнем моря 181 м.
В архиве по умолчанию представлена погода в Симферополе за последнюю неделю. Архивные данные за месяц целиком и за предыдущие месяцы, начиная с января 2011 года, Вы можете получить, выбрав интересующий диапазон дат из раскрывающегося списка и нажав кнопку "Найти!".
*Определитесь, кто Вы:
Внимание! Время в таблицах - всемирное. Для получения местного времени необходимо прибавить поправку, которая равна 3 ч.
Смотрите также архив погоды в соседних городах и на ближайших метеорологических станциях:
Партнеры нашего сайта:      
Пояснения к столбцам:
  • Ветер - указаны скорость ветра в м/с - средняя за 10 мин, порывы в срок и между сроками (в фигурных скобках) и направление, откуда дует ветер: С - северный,
  • СВ - северо-восточный, В - восточный, ЮВ - юго-восточный, Ю - южный, ЮЗ - юго-западный, З - западный, СЗ - северо-западный.
  • Видимость - горизонтальная дальность видимости в метрах или километрах. При видимости от 1 до 10 км при отсутствии осадков обычно наблюдается дымка, при ухудшении видимости до 1 км и менее - туман. В сухую погоду видимость может ухудшаться дымом, пылью или мглою.
  • Явления - указаны атмосферные явления, наблюдавшиеся в срок или в последний час перед сроком; фигурными скобками обозначены явления, наблюдавшиеся между сроками (за 1-3 часа до срока); квадратными скобками обозначены град или гололедные отложения с указанием их диаметра в мм.
  • Облачность - указаны через наклонную черту общая и нижняя облачность в баллах и высота нижней границы облаков в метрах; квадратными скобками обозначены формы облаков: Ci - перистые, Cs - перисто-слоистые, Cc - перисто-кучевые, Ac - высококучевые, As - высокослоистые, Sc - слоисто-кучевые, Ns - слоисто-дождевые, Cu - кучевые, Cb - кучево-дождевые. Подробнее классификацию облаков см. в Атласе облаков (PDF).
  • T - Температура воздуха - температура, измеренная на высоте 2 м над землей.
  • Td - Температура точки росы - температура, при понижении до которой содержащийся в воздухе водяной пар достигнет насыщения.
  • f - Относительная влажность воздуха - влажноcть воздуха, измеренная на высоте 2 м над землей.
  • Te - Эффективная температура - температура, которую ощущает одетый по сезону человек в тени. Характеристика душности погоды. При расчете учитывается влияние влажности воздуха и скорости ветра на теплоощущения человека.
  • Tes - Эффективная температура на солнце - температура, которую ощущает человек, с поправкой на солнечный нагрев. Характеристика знойности погоды. Зависит от высоты солнца над горизонтом, облачности и скорости ветра. Ночью, в пасмурную погоду, а также при ветре 12 м/с и более поправка равна нулю.
  • P - Атмосферное давление - приведенное к уровню моря атмосферное давление.
  • Po - Атмосферное давление - измеренное на уровне метеостанции атмосферное давление.
  • Tmin - Минимальная температура - минимум температуры воздуха на высоте 2 м над землей.
  • Tmax - Максимальная температура - максимум температуры воздуха на высоте 2 м над землей.
  • R - Количество осадков - Количество выпавших осадков за период времени, мм. При наведении курсора мыши на число - период времени, за который выпало указанное количество осадков.
  • R24 - Количество осадков - Количество выпавших осадков за 24 часа, мм.
  • S - Снежный покров - Высота снежного покрова, см. При наведении курсора мыши на число - состояние снежного покрова и степень покрытия местности в баллах.